User: anonymous   Login
Location: ???????
(55.9142°N, 37.8256°E)
Time: 03:46:17
(UTC+00:00)
Language:

ATLAS 3B R/B - Orbit

View from above orbital plane
View from above orbital plane
View from above satellite
View from above satellite

Ground track
Ground track

The orbit data is extracted from the following two-line orbital elements,

1 28538U 05004B   24164.85531764 -.00000017  00000-0  10723-3 0  9996
2 28538  63.8257 340.8255 0206898 296.9430  61.0597 13.43259343  6520
Epoch (UTC): 12 June 2024 20:31:39
Eccentricity: 0.0206898
inclination: 63.8257°
perigee height: 942 km
apogee height: 1252 km
right ascension of ascending node: 340.8255°
argument of perigee: 296.9430°
revolutions per day: 13.43259343
mean anomaly at epoch: 61.0597°
orbit number at epoch: 652

The dashed part of the orbit path shows where the satellite is in the earth's shadow,  

DLR